Home > Weather > Guangzhou > Past weeks

Flag for China Past Weather in Guangzhou, Guangdong, China — Yesterday and Last 2 Weeks

Now
84 °F

Passing clouds.


Feels Like: 94 °F
Forecast: 79 / 89 °F
Wind: 3 mph from East

Location: Canton Airport

Current Time: Jun 30, 2016 at 6:27:19 PM

Latest Report: Jun 30, 2016 at 6:00 PM


Visibility: N/A

Pressure: 29.74 "Hg

Humidity: 79%

Dew Point: 77 °F

Location of GuangzhouLocation

Past Weather in Guangzhou — Graph

°F

Guangzhou Temperature Yesterday

Maximum temperature yesterday: 91 °F (at 2:00 PM)
Minimum temperature yesterday: 79 °F (at 1:00 AM)
Average temperature yesterday: 83 °F

High & Low Weather Summary for the Past Weeks

 TemperatureHumidityPressure
High97 °F (Jun 24, 2:30 PM)100% (Jun 15, 5:00 PM)29.86 "Hg (Jun 15, 5:00 PM)
Low73 °F (Jun 17, 6:30 PM)44% (Jun 23, 2:30 PM)29.62 "Hg (Jun 15, 5:00 PM)
Average85 °F76%29.76 "Hg
* Reported Jun 15 5:00 PM — Jun 30 5:00 PM, Guangzhou, Weather by CustomWeather, © 2016

Note: Actual official high and low records may vary slightly from our data, if they occured in-between our weather recording intervals... More about our weather records

Advertising

Guangzhou Weather History for the Previous 24 Hours

Scroll right to see more
 ConditionsComfort  
Time TempWeatherWind HumidityBarometerVisibility
5:00 PM
Thu, Jun 30
86 °FPassing clouds.1 mph70%29.74 "HgN/A
4:30 PM82 °FScattered clouds.1 mph84%29.74 "HgN/A
4:00 PM82 °FScattered clouds.1 mph84%29.77 "HgN/A
3:30 PM81 °FPassing clouds.1 mph84%29.77 "HgN/A
3:00 PM81 °FSunny.3 mph84%29.77 "Hg10 mi
2:30 PM81 °FSunny.1 mph84%29.80 "Hg10 mi
2:00 PM79 °FPassing clouds.1 mph89%29.80 "HgN/A
1:30 PM77 °FSprinkles. Partly sunny.6 mph89%29.80 "HgN/A
1:00 PM77 °FThunderstorms. Broken clouds.6 mph94%29.83 "Hg5 mi
12:30 PM77 °FStrong thunderstorms. Scattered clouds.22 mph94%29.86 "Hg1 mi
12:00 PM86 °FPartly sunny.10 mph75%29.83 "HgN/A
11:30 AM90 °FScattered clouds.10 mph71%29.83 "HgN/A
11:00 AM90 °FScattered clouds.8 mph71%29.83 "HgN/A
10:30 AM88 °FScattered clouds.8 mph75%29.83 "HgN/A
10:00 AM88 °FScattered clouds.8 mph75%29.83 "HgN/A
9:30 AM86 °FScattered clouds.6 mph79%29.83 "HgN/A
9:00 AM84 °FScattered clouds.3 mph84%29.83 "HgN/A
8:30 AM82 °FBroken clouds.3 mph89%29.83 "HgN/A
8:00 AM81 °FSprinkles. Passing clouds.6 mph89%29.83 "HgN/A
7:30 AM79 °FSprinkles. Passing clouds.8 mph94%29.83 "Hg5 mi
7:00 AM82 °FSprinkles. Fog.3 mph89%29.83 "Hg3 mi
6:30 AM81 °FFog.1 mph94%29.83 "Hg3 mi
6:00 AM81 °FFog.3 mph94%29.83 "Hg3 mi
5:30 AM81 °FPassing clouds.3 mph94%29.80 "HgN/A
5:00 AM81 °FThunderstorms. Passing clouds.3 mph94%29.80 "Hg4 mi
4:30 AM81 °FThunderstorms. Passing clouds.3 mph94%29.80 "Hg4 mi
4:00 AM81 °FThunderstorms. Passing clouds.6 mph94%29.80 "HgN/A
3:30 AM81 °FPartly cloudy.3 mph89%29.80 "HgN/A
3:00 AM81 °FPartly cloudy.3 mph89%29.80 "HgN/A
2:30 AM81 °FPartly cloudy.3 mph89%29.80 "HgN/A
2:00 AM81 °FPartly cloudy.3 mph89%29.83 "HgN/A
1:30 AM81 °FLight rain. Partly cloudy.3 mph89%29.83 "HgN/A
1:00 AM81 °FPassing clouds.3 mph89%29.83 "HgN/A
12:30 AM81 °FPassing clouds.6 mph89%29.83 "HgN/A
12:00 AM81 °FClear.6 mph89%29.83 "Hg10 mi
11:30 PM
Wed, Jun 29
81 °FPartly cloudy.3 mph89%29.83 "HgN/A
11:00 PM81 °FPartly cloudy.3 mph94%29.83 "HgN/A
10:30 PM81 °FPassing clouds.3 mph94%29.83 "HgN/A
10:00 PM81 °FPassing clouds.3 mph94%29.83 "HgN/A
9:30 PM81 °FPartly cloudy.3 mph94%29.83 "HgN/A
9:00 PM81 °FPassing clouds.3 mph94%29.83 "HgN/A
8:30 PM81 °FPassing clouds.3 mph94%29.80 "HgN/A
8:00 PM81 °FPassing clouds.3 mph94%29.80 "HgN/A
7:30 PM81 °FClear.1 mph94%29.80 "Hg10 mi
7:00 PM81 °FSunny.1 mph94%29.80 "Hg10 mi
6:30 PM81 °FSprinkles. Scattered clouds.1 mph94%29.80 "HgN/A
6:00 PM79 °FThunderstorms. Scattered clouds.3 mph94%29.77 "Hg5 mi
Weather by CustomWeather, © 2016

See weather overviewHow to use our weather pages